Location: Newark
(59.4564°N, 26.6917°E)
Time: 15:06:18
(UTC+00:00)

SR - Pass Details

Date: 22 November 2019
Orbit: 573 x 882 km, 66.7° (Epoch: 05 December)

Event Time Altitude Azimuth Distance (km) Brightness Sun altitude
Rises 11:24:28 0° 170° (S) 3,251 ? 8.5°
Reaches altitude 10° 11:27:23 10° 154° (SSE) 2,381 ? 8.4°
Maximum altitude 11:31:16 20° 109° (ESE) 1,851 ? 8.2°
Drops below altitude 10° 11:35:18 10° 65° (ENE) 2,503 ? 8.0°
Sets 11:38:28 0° 49° (NE) 3,473 ? 7.9°
